Location: Unspecified
(40.7945°N, 0.0000°E)
Time: 11:03:32
(UTC+00:00)

AIST 2D - Pass Details

Date: 27 July 2019
Orbit: 458 x 470 km, 97.2° (Epoch: 20 August)

Event Time Altitude Azimuth Distance (km) Brightness Sun altitude
Rises 22:13:22 0° 24° (NNE) 2,518 ? -24.6°
Reaches altitude 10° 22:15:40 10° 37° (NE) 1,637 ? -24.8°
Enters shadow 22:16:22 14° 44° (NE) 1,394 ? -24.9°
